OCN75M EDDF-LCLK

Flight info

Callsign OCN75M
Flight time 3h 29m
Altitude 37000
Route CINDY8S/18 CINDY Z74 LAMPU DCT NOMBO Y161 MAH DCT VAVOR DCT RADIZ DCT MODRO DCT DARZA DCT PINDO DCT LUSES DCT NEVRA DCT AKINA DCT USINI UL995 RDS UM601 EVENO DCT DASNI M601 BONEK
Aircraft A320/M-SDE2E3FGIJ1LORWXYZ/HB1

Departure

Time 2026-04-14 10:32
Airport Frankfurt Main Airport (EDDF)

Arrival

Time 2026-04-14 14:01
Airport Larnaca International Airport (LCLK)
Time Latitude Longitude Altitude Speed Heading
2026-04-14 10:06 50.04829 8.58837 365 ft 0 kts 340°
2026-04-14 10:20 50.04823 8.58841 365 ft 2 kts 339°
2026-04-14 10:20 50.04805 8.58852 368 ft 3 kts 335°
2026-04-14 10:21 50.04787 8.58866 370 ft 3 kts 327°
2026-04-14 10:21 50.04771 8.58884 368 ft 3 kts 309°
2026-04-14 10:21 50.04762 8.58907 368 ft 3 kts 266°
2026-04-14 10:21 50.04763 8.58918 368 ft 0 kts 250°
2026-04-14 10:25 50.04751 8.58870 370 ft 9 kts 250°
2026-04-14 10:25 50.04716 8.58731 368 ft 18 kts 245°
2026-04-14 10:26 50.04672 8.58559 374 ft 17 kts 250°
2026-04-14 10:26 50.04632 8.58393 370 ft 16 kts 249°
2026-04-14 10:26 50.04594 8.58236 369 ft 16 kts 250°
2026-04-14 10:26 50.04541 8.58011 368 ft 25 kts 249°
2026-04-14 10:27 50.04479 8.57750 367 ft 26 kts 250°
2026-04-14 10:27 50.04417 8.57491 361 ft 27 kts 250°
2026-04-14 10:27 50.04350 8.57204 363 ft 29 kts 250°
2026-04-14 10:27 50.04282 8.56934 364 ft 27 kts 249°
2026-04-14 10:28 50.04218 8.56657 358 ft 29 kts 251°
2026-04-14 10:28 50.04147 8.56348 361 ft 30 kts 250°
2026-04-14 10:28 50.04075 8.56060 359 ft 29 kts 249°
2026-04-14 10:28 50.04004 8.55759 355 ft 30 kts 250°
2026-04-14 10:29 50.03928 8.55445 351 ft 31 kts 250°
2026-04-14 10:29 50.03851 8.55124 356 ft 32 kts 249°
2026-04-14 10:29 50.03773 8.54801 353 ft 29 kts 250°
2026-04-14 10:29 50.03703 8.54505 345 ft 30 kts 250°
2026-04-14 10:30 50.03633 8.54210 345 ft 29 kts 249°
2026-04-14 10:30 50.03567 8.53938 341 ft 27 kts 250°
2026-04-14 10:30 50.03502 8.53657 336 ft 28 kts 249°
2026-04-14 10:30 50.03430 8.53363 334 ft 30 kts 250°
2026-04-14 10:31 50.03359 8.53069 333 ft 28 kts 249°
2026-04-14 10:31 50.03297 8.52796 331 ft 27 kts 250°
2026-04-14 10:31 50.03188 8.52594 333 ft 28 kts 188°
2026-04-14 10:31 50.02799 8.52598 335 ft 97 kts 179°
2026-04-14 10:32 50.01837 8.52608 330 ft 172 kts 180°
2026-04-14 10:32 50.00517 8.52642 804 ft 199 kts 179°
2026-04-14 10:32 49.99110 8.52700 1787 ft 200 kts 179°
2026-04-14 10:32 49.97738 8.52739 2556 ft 200 kts 175°
2026-04-14 10:33 49.96399 8.53581 2812 ft 225 kts 134°
2026-04-14 10:33 49.95533 8.55630 3396 ft 234 kts 114°
2026-04-14 10:33 49.94774 8.57857 4367 ft 232 kts 116°
2026-04-14 10:33 49.94049 8.60084 5220 ft 235 kts 104°
2026-04-14 10:34 49.93821 8.65528 6201 ft 270 kts 90°
2026-04-14 10:34 49.93457 8.68421 6978 ft 279 kts 112°
2026-04-14 10:34 49.92386 8.70948 7746 ft 286 kts 135°
2026-04-14 10:35 49.90806 8.72850 8553 ft 289 kts 147°
2026-04-14 10:35 49.89196 8.74697 9442 ft 291 kts 139°
2026-04-14 10:35 49.87863 8.77095 10320 ft 294 kts 124°
2026-04-14 10:35 49.86825 8.79887 10821 ft 310 kts 120°
2026-04-14 10:36 49.85740 8.82909 11126 ft 330 kts 120°
2026-04-14 10:36 49.84605 8.86061 11744 ft 338 kts 121°
2026-04-14 10:36 49.83449 8.89258 12458 ft 343 kts 121°
2026-04-14 10:36 49.82276 8.92496 13188 ft 347 kts 121°
2026-04-14 10:37 49.81090 8.95770 13902 ft 351 kts 121°
2026-04-14 10:37 49.79884 8.99082 14536 ft 354 kts 121°
2026-04-14 10:37 49.78666 9.02417 15182 ft 357 kts 121°
2026-04-14 10:37 49.77441 9.05775 15848 ft 360 kts 121°
2026-04-14 10:38 49.76310 9.09260 16500 ft 366 kts 112°
2026-04-14 10:38 49.75575 9.13045 17129 ft 370 kts 105°
2026-04-14 10:38 49.74813 9.16851 17750 ft 371 kts 114°
2026-04-14 10:38 49.73603 9.20378 18365 ft 373 kts 126°
2026-04-14 10:39 49.71991 9.23516 18890 ft 374 kts 133°
2026-04-14 10:39 49.70265 9.26548 19415 ft 377 kts 133°
2026-04-14 10:39 49.68533 9.29604 19968 ft 380 kts 133°
2026-04-14 10:39 49.66789 9.32684 20497 ft 382 kts 133°
2026-04-14 10:40 49.65032 9.35782 21026 ft 385 kts 133°
2026-04-14 10:40 49.63259 9.38898 21522 ft 388 kts 134°
2026-04-14 10:40 49.61287 9.41730 22015 ft 388 kts 144°
2026-04-14 10:40 49.59029 9.44011 22499 ft 389 kts 151°
2026-04-14 10:41 49.56690 9.46146 22985 ft 392 kts 150°
2026-04-14 10:41 49.54335 9.48302 23440 ft 396 kts 150°
2026-04-14 10:41 49.51959 9.50476 23868 ft 399 kts 150°
2026-04-14 10:41 49.49566 9.52664 24250 ft 402 kts 150°
2026-04-14 10:42 49.47156 9.54866 24646 ft 404 kts 150°
2026-04-14 10:42 49.44730 9.57073 25026 ft 406 kts 151°
2026-04-14 10:42 49.42289 9.59289 25416 ft 409 kts 151°
2026-04-14 10:42 49.39836 9.61516 25784 ft 411 kts 151°
2026-04-14 10:43 49.37367 9.63758 26165 ft 413 kts 151°
2026-04-14 10:43 49.34904 9.66067 26531 ft 417 kts 147°
2026-04-14 10:43 49.32646 9.68875 26890 ft 421 kts 137°
2026-04-14 10:43 49.30566 9.72051 27245 ft 423 kts 136°
2026-04-14 10:44 49.28478 9.75250 27601 ft 425 kts 136°
2026-04-14 10:44 49.26379 9.78463 27947 ft 428 kts 136°
2026-04-14 10:44 49.24267 9.81690 28289 ft 430 kts 136°
2026-04-14 10:44 49.22140 9.84931 28626 ft 433 kts 136°
2026-04-14 10:45 49.19999 9.88186 28968 ft 435 kts 136°
2026-04-14 10:45 49.17844 9.91454 29298 ft 438 kts 137°
2026-04-14 10:45 49.15674 9.94737 29633 ft 440 kts 137°
2026-04-14 10:45 49.13496 9.98033 29948 ft 442 kts 137°
2026-04-14 10:46 49.11304 10.01349 30250 ft 444 kts 137°
2026-04-14 10:46 49.09101 10.04675 30510 ft 446 kts 137°
2026-04-14 10:46 49.06889 10.08006 30768 ft 448 kts 136°
2026-04-14 10:46 49.04656 10.11333 31029 ft 450 kts 137°
2026-04-14 10:47 49.02378 10.14618 31282 ft 451 kts 138°
2026-04-14 10:47 49.00068 10.17868 31557 ft 452 kts 139°
2026-04-14 10:47 48.97749 10.21087 31924 ft 451 kts 139°
2026-04-14 10:47 48.95431 10.24295 32280 ft 450 kts 138°
2026-04-14 10:48 48.93117 10.27514 32562 ft 452 kts 138°
2026-04-14 10:48 48.90839 10.30709 32869 ft 451 kts 138°
2026-04-14 10:48 48.88534 10.33960 33145 ft 453 kts 137°
2026-04-14 10:48 48.86230 10.37217 33485 ft 452 kts 137°
2026-04-14 10:49 48.83928 10.40466 33808 ft 452 kts 137°
2026-04-14 10:49 48.81615 10.43798 34137 ft 452 kts 135°
2026-04-14 10:49 48.79441 10.47144 34427 ft 451 kts 133°
2026-04-14 10:49 48.77293 10.50615 34670 ft 452 kts 133°
2026-04-14 10:50 48.75154 10.54148 34911 ft 452 kts 133°
2026-04-14 10:50 48.73033 10.57654 35192 ft 451 kts 133°
2026-04-14 10:50 48.70906 10.61134 35440 ft 450 kts 134°
2026-04-14 10:50 48.68764 10.64587 35689 ft 450 kts 134°
2026-04-14 10:51 48.66610 10.68017 35930 ft 449 kts 134°
2026-04-14 10:51 48.64451 10.71437 36171 ft 449 kts 134°
2026-04-14 10:51 48.62295 10.74842 36410 ft 448 kts 134°
2026-04-14 10:51 48.60138 10.78240 36636 ft 448 kts 135°
2026-04-14 10:52 48.57982 10.81635 36838 ft 448 kts 134°
2026-04-14 10:52 48.55836 10.85038 37047 ft 448 kts 134°
2026-04-14 10:52 48.53695 10.88455 37145 ft 448 kts 135°
2026-04-14 10:53 48.49468 10.95234 37160 ft 441 kts 134°
2026-04-14 10:53 48.45251 11.01915 37175 ft 440 kts 135°
2026-04-14 10:54 48.40993 11.08530 37167 ft 439 kts 135°
2026-04-14 10:54 48.36729 11.15123 37150 ft 439 kts 135°
2026-04-14 10:55 48.32476 11.21722 37155 ft 439 kts 135°
2026-04-14 10:55 48.28219 11.28306 37141 ft 439 kts 135°
2026-04-14 10:56 48.24597 11.35688 37141 ft 442 kts 121°
2026-04-14 10:56 48.21527 11.43677 37150 ft 442 kts 121°
2026-04-14 10:57 48.18442 11.51645 37138 ft 442 kts 121°
2026-04-14 10:57 48.15354 11.59614 37131 ft 442 kts 121°
2026-04-14 10:58 48.12262 11.67556 37140 ft 441 kts 122°
2026-04-14 10:58 48.09163 11.75485 37145 ft 441 kts 122°
2026-04-14 10:59 48.06586 11.82068 37136 ft 441 kts 122°
2026-04-14 10:59 48.03483 11.89984 37139 ft 441 kts 122°
2026-04-14 11:00 48.00375 11.97884 37135 ft 441 kts 122°
2026-04-14 11:00 47.97255 12.05770 37131 ft 441 kts 123°
2026-04-14 11:01 47.94055 12.13580 37137 ft 440 kts 129°
2026-04-14 11:01 47.89797 12.20011 37129 ft 435 kts 142°
2026-04-14 11:02 47.85156 12.25817 37125 ft 436 kts 142°
2026-04-14 11:02 47.80517 12.31623 37127 ft 436 kts 142°
2026-04-14 11:03 47.75881 12.37404 37125 ft 436 kts 142°
2026-04-14 11:03 47.71228 12.43199 37123 ft 437 kts 142°
2026-04-14 11:04 47.66571 12.48985 37128 ft 437 kts 142°
2026-04-14 11:04 47.61905 12.54752 37122 ft 437 kts 142°
2026-04-14 11:05 47.57217 12.60467 37124 ft 436 kts 143°
2026-04-14 11:05 47.52506 12.66134 37106 ft 436 kts 143°
2026-04-14 11:06 47.47799 12.71790 37110 ft 436 kts 143°
2026-04-14 11:06 47.43103 12.77450 37102 ft 435 kts 143°
2026-04-14 11:07 47.38405 12.83090 37099 ft 435 kts 143°
2026-04-14 11:07 47.33709 12.88716 37091 ft 435 kts 143°
2026-04-14 11:08 47.29015 12.94333 37063 ft 434 kts 143°
2026-04-14 11:08 47.24326 12.99930 37069 ft 433 kts 143°
2026-04-14 11:09 47.19640 13.05503 37052 ft 433 kts 143°
2026-04-14 11:09 47.14952 13.11059 37053 ft 433 kts 143°
2026-04-14 11:10 47.07917 13.19365 37042 ft 433 kts 143°
2026-04-14 11:10 47.03230 13.24906 37040 ft 433 kts 143°
2026-04-14 11:11 46.98542 13.30431 37050 ft 432 kts 143°
2026-04-14 11:11 46.93859 13.35925 37051 ft 431 kts 143°
2026-04-14 11:12 46.89182 13.41409 37056 ft 431 kts 143°
2026-04-14 11:12 46.84509 13.46881 37054 ft 430 kts 143°
2026-04-14 11:13 46.79838 13.52334 37058 ft 430 kts 143°
2026-04-14 11:13 46.75162 13.57762 37062 ft 429 kts 144°
2026-04-14 11:14 46.70499 13.63168 37073 ft 428 kts 144°
2026-04-14 11:14 46.65847 13.68555 37077 ft 427 kts 144°
2026-04-14 11:15 46.61201 13.73929 37079 ft 426 kts 144°
2026-04-14 11:15 46.56555 13.79285 37074 ft 426 kts 144°
2026-04-14 11:16 46.51913 13.84623 37066 ft 426 kts 144°
2026-04-14 11:16 46.47271 13.89955 37068 ft 425 kts 144°
2026-04-14 11:17 46.42625 13.95279 37064 ft 426 kts 144°
2026-04-14 11:17 46.37976 14.00587 37068 ft 425 kts 144°
2026-04-14 11:18 46.33331 14.05890 37055 ft 425 kts 144°
2026-04-14 11:18 46.28681 14.11185 37064 ft 425 kts 144°
2026-04-14 11:19 46.24023 14.16465 37041 ft 426 kts 144°
2026-04-14 11:19 46.19357 14.21744 37044 ft 426 kts 144°
2026-04-14 11:20 46.14689 14.27020 37048 ft 427 kts 144°
2026-04-14 11:20 46.10007 14.32292 37051 ft 427 kts 144°
2026-04-14 11:21 46.05321 14.37557 37054 ft 427 kts 144°
2026-04-14 11:21 46.00672 14.42872 37059 ft 427 kts 143°
2026-04-14 11:22 45.96031 14.48200 37060 ft 427 kts 143°
2026-04-14 11:22 45.91374 14.53526 37064 ft 428 kts 144°
2026-04-14 11:23 45.86710 14.58837 37066 ft 428 kts 144°
2026-04-14 11:23 45.82035 14.64137 37074 ft 428 kts 144°
2026-04-14 11:24 45.77354 14.69428 37070 ft 428 kts 144°
2026-04-14 11:24 45.72678 14.74708 37078 ft 428 kts 144°
2026-04-14 11:25 45.67998 14.79981 37072 ft 428 kts 144°
2026-04-14 11:25 45.63315 14.85242 37078 ft 428 kts 144°
2026-04-14 11:26 45.58631 14.90497 37074 ft 428 kts 144°
2026-04-14 11:26 45.53951 14.95746 37070 ft 428 kts 144°
2026-04-14 11:27 45.49268 15.00982 37059 ft 428 kts 143°
2026-04-14 11:27 45.44781 15.06577 37056 ft 429 kts 139°
2026-04-14 11:28 45.40499 15.12512 37064 ft 430 kts 138°
2026-04-14 11:28 45.36194 15.18420 37061 ft 430 kts 139°
2026-04-14 11:29 45.31820 15.24213 37065 ft 430 kts 140°
2026-04-14 11:29 45.27421 15.29964 37063 ft 430 kts 140°
2026-04-14 11:30 45.23054 15.35685 37068 ft 430 kts 140°
2026-04-14 11:30 45.18629 15.41484 37068 ft 431 kts 140°
2026-04-14 11:31 45.14259 15.47207 37067 ft 431 kts 139°
2026-04-14 11:31 45.09859 15.52964 37057 ft 431 kts 140°
2026-04-14 11:32 45.05446 15.58705 37058 ft 431 kts 140°
2026-04-14 11:32 45.01031 15.64437 37060 ft 431 kts 140°
2026-04-14 11:33 44.96621 15.70170 37056 ft 431 kts 140°
2026-04-14 11:34 44.89997 15.78758 37056 ft 431 kts 140°
2026-04-14 11:34 44.85571 15.84462 37037 ft 432 kts 140°
2026-04-14 11:35 44.81132 15.90174 37031 ft 433 kts 140°
2026-04-14 11:35 44.76683 15.95881 37033 ft 433 kts 140°
2026-04-14 11:36 44.72232 16.01592 37036 ft 433 kts 140°
2026-04-14 11:36 44.67776 16.07304 37028 ft 433 kts 140°
2026-04-14 11:37 44.63313 16.12998 37025 ft 434 kts 140°
2026-04-14 11:37 44.58842 16.18692 37014 ft 434 kts 140°
2026-04-14 11:38 44.54363 16.24390 37017 ft 435 kts 140°
2026-04-14 11:38 44.49874 16.30085 37008 ft 435 kts 140°
2026-04-14 11:39 44.45381 16.35774 37004 ft 436 kts 141°
2026-04-14 11:39 44.40880 16.41457 37002 ft 436 kts 141°
2026-04-14 11:40 44.36371 16.47133 37007 ft 436 kts 141°
2026-04-14 11:40 44.31866 16.52797 37008 ft 436 kts 141°
2026-04-14 11:41 44.28121 16.57499 37007 ft 435 kts 141°
2026-04-14 11:41 44.23615 16.63137 37000 ft 435 kts 141°
2026-04-14 11:42 44.19105 16.68770 37006 ft 435 kts 141°
2026-04-14 11:42 44.14599 16.74396 37010 ft 435 kts 141°
2026-04-14 11:43 44.10097 16.80005 37010 ft 434 kts 141°
2026-04-14 11:43 44.05591 16.85603 37019 ft 434 kts 141°
2026-04-14 11:44 44.01085 16.91179 37005 ft 434 kts 141°
2026-04-14 11:44 43.96567 16.96762 37010 ft 435 kts 141°
2026-04-14 11:45 43.92040 17.02348 37017 ft 436 kts 141°
2026-04-14 11:45 43.87508 17.07924 37021 ft 436 kts 142°
2026-04-14 11:46 43.82971 17.13495 37035 ft 436 kts 141°
2026-04-14 11:46 43.78434 17.19062 37030 ft 436 kts 141°
2026-04-14 11:47 43.73896 17.24629 37036 ft 436 kts 142°
2026-04-14 11:47 43.69344 17.30178 37037 ft 436 kts 142°
2026-04-14 11:48 43.64793 17.35714 37036 ft 436 kts 142°
2026-04-14 11:48 43.60245 17.41247 37036 ft 436 kts 141°
2026-04-14 11:49 43.55692 17.46778 37035 ft 436 kts 141°
2026-04-14 11:49 43.51132 17.52308 37038 ft 437 kts 142°
2026-04-14 11:50 43.46561 17.57824 37042 ft 437 kts 142°
2026-04-14 11:50 43.41986 17.63327 37048 ft 437 kts 142°
2026-04-14 11:51 43.35117 17.71579 37052 ft 437 kts 142°
2026-04-14 11:51 43.30539 17.77073 37037 ft 437 kts 142°
2026-04-14 11:52 43.25956 17.82562 36982 ft 437 kts 142°
2026-04-14 11:52 43.21361 17.88046 36984 ft 438 kts 142°
2026-04-14 11:53 43.16758 17.93535 36985 ft 439 kts 142°
2026-04-14 11:53 43.12147 17.99017 37001 ft 439 kts 142°
2026-04-14 11:54 43.07529 18.04496 37017 ft 440 kts 142°
2026-04-14 11:54 43.02911 18.09974 37029 ft 440 kts 142°
2026-04-14 11:55 42.98291 18.15445 37033 ft 440 kts 142°
2026-04-14 11:55 42.93657 18.20904 37035 ft 440 kts 142°
2026-04-14 11:56 42.89024 18.26346 37031 ft 440 kts 143°
2026-04-14 11:56 42.84388 18.31791 37030 ft 440 kts 143°
2026-04-14 11:57 42.79751 18.37232 37026 ft 440 kts 142°
2026-04-14 11:57 42.75111 18.42668 37029 ft 440 kts 143°
2026-04-14 11:58 42.70465 18.48094 37014 ft 440 kts 143°
2026-04-14 11:58 42.65818 18.53500 37024 ft 440 kts 143°
2026-04-14 11:59 42.61171 18.58902 37026 ft 440 kts 143°
2026-04-14 11:59 42.56525 18.64293 37027 ft 439 kts 143°
2026-04-14 12:00 42.51877 18.69679 37034 ft 439 kts 143°
2026-04-14 12:00 42.47227 18.75056 37033 ft 439 kts 143°
2026-04-14 12:01 42.42577 18.80418 37022 ft 439 kts 144°
2026-04-14 12:01 42.37927 18.85772 37028 ft 439 kts 144°
2026-04-14 12:02 42.33281 18.91113 37029 ft 438 kts 144°
2026-04-14 12:02 42.28635 18.96438 37031 ft 438 kts 144°
2026-04-14 12:03 42.23983 19.01754 37031 ft 438 kts 144°
2026-04-14 12:03 42.19336 19.07064 37027 ft 438 kts 144°
2026-04-14 12:04 42.14686 19.12359 37015 ft 438 kts 145°
2026-04-14 12:04 42.10033 19.17652 37014 ft 438 kts 145°
2026-04-14 12:05 42.05377 19.22931 37017 ft 438 kts 145°
2026-04-14 12:05 42.00718 19.28207 37014 ft 438 kts 145°
2026-04-14 12:06 41.96064 19.33471 37017 ft 437 kts 145°
2026-04-14 12:06 41.91410 19.38730 37023 ft 437 kts 145°
2026-04-14 12:07 41.86763 19.43969 37016 ft 436 kts 145°
2026-04-14 12:07 41.82112 19.49188 37002 ft 436 kts 145°
2026-04-14 12:08 41.77465 19.54409 37000 ft 436 kts 145°
2026-04-14 12:08 41.72817 19.59618 37001 ft 436 kts 145°
2026-04-14 12:09 41.68200 19.64778 37000 ft 435 kts 146°
2026-04-14 12:09 41.63517 19.69991 37004 ft 435 kts 146°
2026-04-14 12:10 41.58896 19.75118 37004 ft 435 kts 146°
2026-04-14 12:10 41.54256 19.80282 36974 ft 432 kts 146°
2026-04-14 12:11 41.49621 19.85429 36984 ft 434 kts 146°
2026-04-14 12:11 41.44968 19.90575 36977 ft 434 kts 146°
2026-04-14 12:12 41.40317 19.95704 36985 ft 434 kts 146°
2026-04-14 12:12 41.35660 20.00833 36991 ft 434 kts 146°
2026-04-14 12:13 41.31004 20.05962 36995 ft 435 kts 146°
2026-04-14 12:13 41.26350 20.11086 37009 ft 434 kts 146°
2026-04-14 12:14 41.21691 20.16194 36973 ft 434 kts 147°
2026-04-14 12:14 41.17025 20.21288 37001 ft 435 kts 147°
2026-04-14 12:15 41.12349 20.26382 37010 ft 435 kts 147°
2026-04-14 12:15 41.07675 20.31474 37018 ft 435 kts 147°
2026-04-14 12:16 41.02997 20.36572 37039 ft 435 kts 147°
2026-04-14 12:16 40.98319 20.41657 37040 ft 435 kts 147°
2026-04-14 12:17 40.93635 20.46726 37041 ft 435 kts 147°
2026-04-14 12:17 40.88944 20.51792 37056 ft 436 kts 148°
2026-04-14 12:18 40.84248 20.56858 37062 ft 436 kts 148°
2026-04-14 12:18 40.79551 20.61924 37078 ft 436 kts 148°
2026-04-14 12:19 40.74854 20.66970 37071 ft 435 kts 148°
2026-04-14 12:19 40.70147 20.72008 37051 ft 436 kts 148°
2026-04-14 12:20 40.65438 20.77055 37072 ft 437 kts 148°
2026-04-14 12:20 40.60719 20.82111 37069 ft 438 kts 149°
2026-04-14 12:21 40.55984 20.87172 37076 ft 439 kts 149°
2026-04-14 12:21 40.51240 20.92224 37101 ft 439 kts 149°
2026-04-14 12:22 40.46594 20.97473 37104 ft 445 kts 143°
2026-04-14 12:22 40.42157 21.03141 37103 ft 445 kts 144°
2026-04-14 12:23 40.38453 21.07849 37107 ft 446 kts 144°
2026-04-14 12:23 40.33987 21.13509 37119 ft 446 kts 144°
2026-04-14 12:24 40.29518 21.19162 37128 ft 447 kts 144°
2026-04-14 12:24 40.25044 21.24823 37129 ft 447 kts 144°
2026-04-14 12:25 40.20563 21.30472 37138 ft 448 kts 144°
2026-04-14 12:25 40.16073 21.36128 37129 ft 448 kts 144°
2026-04-14 12:26 40.11586 21.41780 37143 ft 448 kts 144°
2026-04-14 12:26 40.07091 21.47420 37151 ft 448 kts 144°
2026-04-14 12:27 40.02594 21.53053 37151 ft 448 kts 144°
2026-04-14 12:27 39.98099 21.58678 37156 ft 448 kts 144°
2026-04-14 12:28 39.93596 21.64284 37164 ft 448 kts 144°
2026-04-14 12:28 39.89094 21.69887 37157 ft 448 kts 144°
2026-04-14 12:29 39.84595 21.75480 37166 ft 447 kts 144°
2026-04-14 12:29 39.80095 21.81056 37146 ft 446 kts 145°
2026-04-14 12:30 39.75593 21.86623 37157 ft 447 kts 145°
2026-04-14 12:30 39.71094 21.92190 37161 ft 447 kts 145°
2026-04-14 12:31 39.66594 21.97752 37159 ft 447 kts 145°
2026-04-14 12:31 39.62093 22.03291 37132 ft 446 kts 145°
2026-04-14 12:32 39.57589 22.08819 37142 ft 446 kts 145°
2026-04-14 12:32 39.53088 22.14337 37129 ft 445 kts 145°
2026-04-14 12:33 39.48588 22.19839 37147 ft 445 kts 145°
2026-04-14 12:33 39.44089 22.25326 37149 ft 445 kts 145°
2026-04-14 12:34 39.39593 22.30820 37158 ft 445 kts 145°
2026-04-14 12:34 39.35093 22.36303 37132 ft 444 kts 145°
2026-04-14 12:35 39.30787 22.42077 37146 ft 455 kts 134°
2026-04-14 12:35 39.27248 22.48905 37139 ft 458 kts 132°
2026-04-14 12:36 39.23716 22.55753 37166 ft 458 kts 132°
2026-04-14 12:36 39.20176 22.62588 37177 ft 458 kts 132°
2026-04-14 12:37 39.16632 22.69411 37184 ft 458 kts 132°
2026-04-14 12:37 39.13086 22.76228 37183 ft 458 kts 132°
2026-04-14 12:38 39.07742 22.86446 37158 ft 459 kts 132°
2026-04-14 12:39 39.04175 22.93282 37161 ft 461 kts 132°
2026-04-14 12:39 39.00601 23.00128 37140 ft 461 kts 132°
2026-04-14 12:40 38.97016 23.06959 37142 ft 462 kts 132°
2026-04-14 12:40 38.93413 23.13789 37143 ft 462 kts 132°
2026-04-14 12:41 38.89797 23.20634 37139 ft 463 kts 132°
2026-04-14 12:41 38.86177 23.27477 37148 ft 464 kts 132°
2026-04-14 12:42 38.82559 23.34325 37150 ft 464 kts 132°
2026-04-14 12:42 38.78934 23.41170 37154 ft 464 kts 132°
2026-04-14 12:43 38.75294 23.48007 37130 ft 465 kts 132°
2026-04-14 12:43 38.71642 23.54856 37139 ft 466 kts 132°
2026-04-14 12:44 38.67982 23.61713 37134 ft 467 kts 132°
2026-04-14 12:44 38.64311 23.68575 37131 ft 467 kts 132°
2026-04-14 12:45 38.58800 23.78858 37137 ft 468 kts 133°
2026-04-14 12:45 38.55111 23.85708 37154 ft 468 kts 133°
2026-04-14 12:46 38.51417 23.92566 37157 ft 469 kts 133°
2026-04-14 12:46 38.47727 23.99412 37158 ft 468 kts 133°
2026-04-14 12:47 38.44026 24.06241 37165 ft 468 kts 133°
2026-04-14 12:47 38.40306 24.13069 37151 ft 469 kts 133°
2026-04-14 12:48 38.36576 24.19919 37153 ft 471 kts 133°
2026-04-14 12:48 38.32847 24.26796 37155 ft 472 kts 133°
2026-04-14 12:49 38.29107 24.33662 37153 ft 472 kts 133°
2026-04-14 12:49 38.25342 24.40525 37136 ft 473 kts 133°
2026-04-14 12:50 38.19671 24.50850 37151 ft 476 kts 133°
2026-04-14 12:51 38.15765 24.57596 37153 ft 468 kts 140°
2026-04-14 12:51 38.11478 24.63834 37158 ft 469 kts 140°
2026-04-14 12:52 38.07215 24.70032 37164 ft 469 kts 140°
2026-04-14 12:52 38.02920 24.76265 37164 ft 469 kts 140°
2026-04-14 12:53 37.98591 24.82534 37170 ft 469 kts 140°
2026-04-14 12:53 37.94313 24.88709 37174 ft 469 kts 140°
2026-04-14 12:54 37.90009 24.94922 37171 ft 469 kts 140°
2026-04-14 12:54 37.85697 25.01134 37169 ft 469 kts 140°
2026-04-14 12:55 37.81380 25.07338 37156 ft 470 kts 140°
2026-04-14 12:55 37.77053 25.13546 37157 ft 471 kts 140°
2026-04-14 12:56 37.72717 25.19753 37162 ft 471 kts 140°
2026-04-14 12:56 37.68377 25.25959 37164 ft 471 kts 140°
2026-04-14 12:57 37.64030 25.32157 37145 ft 471 kts 141°
2026-04-14 12:57 37.59680 25.38344 37134 ft 472 kts 140°
2026-04-14 12:58 37.55315 25.44533 37142 ft 472 kts 140°
2026-04-14 12:58 37.50952 25.50722 37149 ft 473 kts 140°
2026-04-14 12:59 37.46583 25.56912 37153 ft 473 kts 140°
2026-04-14 12:59 37.42350 25.63281 37157 ft 484 kts 128°
2026-04-14 12:59 37.40915 25.67167 37148 ft 494 kts 116°
2026-04-14 13:00 37.39709 25.71221 37145 ft 495 kts 116°
2026-04-14 13:00 37.37337 25.79361 37154 ft 496 kts 115°
2026-04-14 13:01 37.34955 25.87508 37158 ft 497 kts 116°
2026-04-14 13:01 37.32528 25.95640 37151 ft 497 kts 115°
2026-04-14 13:02 37.30092 26.03780 37154 ft 498 kts 116°
2026-04-14 13:02 37.27659 26.11929 37157 ft 499 kts 115°
2026-04-14 13:03 37.25217 26.20089 37157 ft 499 kts 116°
2026-04-14 13:03 37.22769 26.28247 37158 ft 500 kts 115°
2026-04-14 13:04 37.20307 26.36411 37157 ft 501 kts 115°
2026-04-14 13:04 37.17838 26.44586 37162 ft 501 kts 115°
2026-04-14 13:05 37.15359 26.52761 37167 ft 502 kts 116°
2026-04-14 13:05 37.13289 26.59553 37161 ft 502 kts 115°
2026-04-14 13:06 37.10796 26.67740 37148 ft 503 kts 115°
2026-04-14 13:06 37.08296 26.75937 37162 ft 504 kts 116°
2026-04-14 13:07 37.05782 26.84128 37170 ft 504 kts 116°
2026-04-14 13:07 37.03263 26.92319 37162 ft 505 kts 115°
2026-04-14 13:08 37.00739 27.00523 37162 ft 505 kts 115°
2026-04-14 13:08 36.98207 27.08723 37167 ft 505 kts 115°
2026-04-14 13:09 36.95660 27.16918 37173 ft 506 kts 115°
2026-04-14 13:09 36.93114 27.25118 37170 ft 506 kts 115°
2026-04-14 13:10 36.90557 27.33319 37173 ft 507 kts 115°
2026-04-14 13:10 36.87987 27.41516 37171 ft 507 kts 115°
2026-04-14 13:11 36.85409 27.49708 37167 ft 507 kts 115°
2026-04-14 13:11 36.82831 27.57907 37170 ft 507 kts 115°
2026-04-14 13:12 36.80254 27.66105 37177 ft 508 kts 115°
2026-04-14 13:12 36.77664 27.74293 37182 ft 507 kts 115°
2026-04-14 13:13 36.75062 27.82475 37183 ft 508 kts 115°
2026-04-14 13:13 36.72453 27.90653 37186 ft 508 kts 115°
2026-04-14 13:14 36.69845 27.98831 37186 ft 508 kts 115°
2026-04-14 13:14 36.67240 28.07008 37183 ft 508 kts 115°
2026-04-14 13:15 36.64622 28.15182 37182 ft 508 kts 115°
2026-04-14 13:15 36.61987 28.23337 37187 ft 508 kts 115°
2026-04-14 13:16 36.59345 28.31498 37192 ft 508 kts 115°
2026-04-14 13:16 36.56708 28.39662 37190 ft 509 kts 115°
2026-04-14 13:17 36.54061 28.47822 37193 ft 509 kts 115°
2026-04-14 13:17 36.51409 28.55982 37196 ft 509 kts 115°
2026-04-14 13:18 36.48744 28.64148 37201 ft 510 kts 115°
2026-04-14 13:18 36.46077 28.72301 37200 ft 510 kts 114°
2026-04-14 13:19 36.43397 28.80451 37205 ft 510 kts 114°
2026-04-14 13:19 36.40717 28.88598 37207 ft 510 kts 115°
2026-04-14 13:20 36.38024 28.96740 37191 ft 510 kts 114°
2026-04-14 13:20 36.35338 29.04873 37204 ft 510 kts 114°
2026-04-14 13:21 36.32646 29.13001 37213 ft 509 kts 114°
2026-04-14 13:21 36.29947 29.21117 37206 ft 509 kts 114°
2026-04-14 13:22 36.27243 29.29224 37203 ft 509 kts 114°
2026-04-14 13:22 36.24534 29.37311 37204 ft 508 kts 114°
2026-04-14 13:23 36.21827 29.45385 37210 ft 508 kts 114°
2026-04-14 13:23 36.19117 29.53457 37208 ft 507 kts 114°
2026-04-14 13:24 36.16418 29.61455 37206 ft 507 kts 114°
2026-04-14 13:24 36.12335 29.73506 37209 ft 506 kts 114°
2026-04-14 13:25 36.09615 29.81536 37206 ft 506 kts 114°
2026-04-14 13:26 36.04159 29.97558 37206 ft 505 kts 114°
2026-04-14 13:26 36.01403 30.05613 37187 ft 506 kts 114°
2026-04-14 13:27 35.98673 30.13555 37188 ft 506 kts 114°
2026-04-14 13:27 35.95915 30.21549 37195 ft 506 kts 114°
2026-04-14 13:28 35.93161 30.29542 37199 ft 506 kts 114°
2026-04-14 13:28 35.90403 30.37529 37201 ft 506 kts 114°
2026-04-14 13:29 35.87643 30.45510 37206 ft 506 kts 113°
2026-04-14 13:29 35.84874 30.53484 37209 ft 506 kts 114°
2026-04-14 13:30 35.82091 30.61438 37207 ft 506 kts 114°
2026-04-14 13:30 35.79299 30.69393 37207 ft 506 kts 114°
2026-04-14 13:31 35.76518 30.77345 37210 ft 506 kts 114°
2026-04-14 13:31 35.73736 30.85301 37209 ft 506 kts 114°
2026-04-14 13:32 35.70942 30.93240 37211 ft 506 kts 114°
2026-04-14 13:32 35.68143 31.01175 37212 ft 505 kts 114°
2026-04-14 13:33 35.65343 31.09105 37214 ft 505 kts 114°
2026-04-14 13:33 35.62537 31.17019 37217 ft 505 kts 114°
2026-04-14 13:34 35.58307 31.28867 37216 ft 504 kts 114°
2026-04-14 13:35 35.55484 31.36748 37224 ft 504 kts 114°
2026-04-14 13:35 35.52675 31.44620 37224 ft 503 kts 114°
2026-04-14 13:36 35.49860 31.52483 37195 ft 504 kts 114°
2026-04-14 13:36 35.47031 31.60350 37194 ft 504 kts 114°
2026-04-14 13:37 35.44184 31.68222 37190 ft 505 kts 114°
2026-04-14 13:37 35.41336 31.76089 37197 ft 505 kts 114°
2026-04-14 13:38 35.38486 31.83960 37200 ft 505 kts 114°
2026-04-14 13:38 35.35634 31.91823 37210 ft 505 kts 114°
2026-04-14 13:39 35.32780 31.99670 37210 ft 504 kts 114°
2026-04-14 13:39 35.30066 32.07571 37208 ft 503 kts 106°
2026-04-14 13:40 35.27935 32.15718 37209 ft 502 kts 106°
2026-04-14 13:40 35.25805 32.23853 37209 ft 502 kts 106°
2026-04-14 13:41 35.23677 32.31982 37205 ft 502 kts 106°
2026-04-14 13:41 35.22610 32.36049 36796 ft 504 kts 106°
2026-04-14 13:41 35.21541 32.40105 35903 ft 499 kts 107°
2026-04-14 13:41 35.20472 32.44147 34617 ft 501 kts 107°
2026-04-14 13:42 35.19403 32.48191 33545 ft 498 kts 107°
2026-04-14 13:42 35.18344 32.52187 32554 ft 490 kts 107°
2026-04-14 13:42 35.17300 32.56124 31631 ft 483 kts 108°
2026-04-14 13:42 35.16272 32.59996 30759 ft 475 kts 108°
2026-04-14 13:43 35.15257 32.63803 29850 ft 468 kts 108°
2026-04-14 13:43 35.14254 32.67553 28875 ft 461 kts 108°
2026-04-14 13:43 35.13269 32.71239 27903 ft 454 kts 108°
2026-04-14 13:43 35.12298 32.74878 26990 ft 447 kts 108°
2026-04-14 13:44 35.11342 32.78461 26077 ft 441 kts 108°
2026-04-14 13:44 35.10396 32.81992 25311 ft 432 kts 109°
2026-04-14 13:44 35.09486 32.85397 24909 ft 416 kts 109°
2026-04-14 13:44 35.08602 32.88721 24299 ft 408 kts 108°
2026-04-14 13:45 35.07730 32.91988 23699 ft 402 kts 108°
2026-04-14 13:45 35.06866 32.95207 23001 ft 397 kts 109°
2026-04-14 13:45 35.05972 32.98393 22303 ft 399 kts 110°
2026-04-14 13:45 35.05035 33.01602 21389 ft 402 kts 110°
2026-04-14 13:46 35.04090 33.04802 20516 ft 399 kts 110°
2026-04-14 13:46 35.03157 33.07967 19742 ft 394 kts 110°
2026-04-14 13:46 35.02244 33.11091 19011 ft 388 kts 110°
2026-04-14 13:46 35.01350 33.14173 18268 ft 383 kts 110°
2026-04-14 13:47 35.00769 33.16184 17743 ft 379 kts 109°
2026-04-14 13:47 34.99902 33.19193 16964 ft 373 kts 109°
2026-04-14 13:47 34.99051 33.22153 16218 ft 367 kts 109°
2026-04-14 13:47 34.98211 33.25065 15497 ft 362 kts 109°
2026-04-14 13:48 34.97384 33.27931 14789 ft 356 kts 109°
2026-04-14 13:48 34.96565 33.30767 14100 ft 351 kts 108°
2026-04-14 13:48 34.95758 33.33554 13363 ft 346 kts 108°
2026-04-14 13:48 34.94960 33.36294 12626 ft 341 kts 109°
2026-04-14 13:49 34.94123 33.38971 11898 ft 336 kts 117°
2026-04-14 13:49 34.92684 33.41130 11405 ft 326 kts 143°
2026-04-14 13:49 34.90675 33.42347 10927 ft 324 kts 168°
2026-04-14 13:49 34.88435 33.42420 10380 ft 325 kts 191°
2026-04-14 13:50 34.86201 33.41894 9794 ft 329 kts 192°
2026-04-14 13:50 34.83949 33.41340 9213 ft 331 kts 192°
2026-04-14 13:50 34.81670 33.40777 8450 ft 338 kts 192°
2026-04-14 13:50 34.79362 33.40209 7808 ft 339 kts 191°
2026-04-14 13:51 34.77037 33.39678 7143 ft 339 kts 186°
2026-04-14 13:51 34.74759 33.39900 6510 ft 322 kts 167°
2026-04-14 13:51 34.72599 33.40246 6055 ft 304 kts 176°
2026-04-14 13:51 34.70584 33.40327 5987 ft 275 kts 177°
2026-04-14 13:52 34.68730 33.40365 5998 ft 261 kts 182°
2026-04-14 13:52 34.67007 33.39766 5998 ft 261 kts 211°
2026-04-14 13:52 34.65736 33.38219 5998 ft 261 kts 241°
2026-04-14 13:52 34.65173 33.36140 5999 ft 260 kts 265°
2026-04-14 13:53 34.65318 33.33973 5766 ft 255 kts 290°
2026-04-14 13:53 34.66164 33.32173 5564 ft 242 kts 315°
2026-04-14 13:53 34.67493 33.30967 5391 ft 238 kts 338°
2026-04-14 13:53 34.69080 33.30498 5237 ft 235 kts
2026-04-14 13:54 34.70676 33.30815 5084 ft 233 kts 22°
2026-04-14 13:54 34.72040 33.31853 4924 ft 232 kts 44°
2026-04-14 13:54 34.72962 33.33423 4769 ft 233 kts 65°
2026-04-14 13:54 34.73325 33.35340 4609 ft 228 kts 86°
2026-04-14 13:55 34.73374 33.37211 4458 ft 221 kts 87°
2026-04-14 13:55 34.73430 33.39050 4315 ft 215 kts 86°
2026-04-14 13:55 34.73486 33.40826 4195 ft 203 kts 86°
2026-04-14 13:55 34.73538 33.42491 4047 ft 193 kts 86°
2026-04-14 13:56 34.73619 33.44108 3872 ft 191 kts 80°
2026-04-14 13:56 34.74141 33.45542 3672 ft 184 kts 48°
2026-04-14 13:56 34.75024 33.46675 3608 ft 184 kts 45°
2026-04-14 13:56 34.75868 33.47752 3368 ft 169 kts 45°
2026-04-14 13:57 34.76603 33.48759 3102 ft 153 kts 48°
2026-04-14 13:57 34.77246 33.49768 2705 ft 150 kts 52°
2026-04-14 13:57 34.77859 33.50738 2493 ft 140 kts 52°
2026-04-14 13:57 34.78430 33.51683 2358 ft 137 kts 51°
2026-04-14 13:58 34.79087 33.52514 2161 ft 136 kts 44°
2026-04-14 13:58 34.79795 33.53266 2018 ft 135 kts 40°
2026-04-14 13:58 34.80515 33.54002 1822 ft 135 kts 43°
2026-04-14 13:58 34.81205 33.54779 1572 ft 134 kts 48°
2026-04-14 13:59 34.81843 33.55603 1413 ft 135 kts 50°
2026-04-14 13:59 34.82474 33.56438 1257 ft 134 kts 49°
2026-04-14 13:59 34.83128 33.57256 996 ft 133 kts 47°
2026-04-14 13:59 34.83794 33.58050 794 ft 135 kts 47°
2026-04-14 14:00 34.84440 33.58859 618 ft 133 kts 46°
2026-04-14 14:00 34.85090 33.59648 470 ft 131 kts 46°
2026-04-14 14:00 34.85744 33.60415 266 ft 130 kts 46°
2026-04-14 14:00 34.86389 33.61185 83 ft 129 kts 47°
2026-04-14 14:01 34.86984 33.61923 21 ft 106 kts 43°
2026-04-14 14:01 34.87385 33.62405 17 ft 58 kts 45°
2026-04-14 14:01 34.87575 33.62640 18 ft 26 kts 46°
2026-04-14 14:01 34.87667 33.62726 19 ft 7 kts 19°
2026-04-14 14:02 34.87667 33.62741 19 ft 3 kts 151°
2026-04-14 14:02 34.87605 33.62681 18 ft 17 kts 226°
2026-04-14 14:02 34.87526 33.62581 18 ft 16 kts 226°
2026-04-14 14:02 34.87449 33.62480 15 ft 16 kts 227°
2026-04-14 14:03 34.87374 33.62388 18 ft 14 kts 225°
2026-04-14 14:03 34.87372 33.62296 20 ft 10 kts 310°
2026-04-14 14:03 34.87419 33.62240 20 ft 9 kts 315°
2026-04-14 14:03 34.87461 33.62172 19 ft 15 kts 283°
2026-04-14 14:04 34.87402 33.62066 19 ft 15 kts 224°
2026-04-14 14:04 34.87329 33.61976 22 ft 17 kts 225°
2026-04-14 14:04 34.87243 33.61869 22 ft 17 kts 226°
2026-04-14 14:04 34.87155 33.61764 22 ft 17 kts 226°
2026-04-14 14:05 34.87082 33.61657 21 ft 16 kts 250°
2026-04-14 14:05 34.87077 33.61529 18 ft 16 kts 233°
2026-04-14 14:05 34.86999 33.61432 17 ft 16 kts 225°
2026-04-14 14:05 34.86939 33.61336 18 ft 13 kts 264°
2026-04-14 14:06 34.86979 33.61266 20 ft 9 kts 315°
2026-04-14 14:06 34.87001 33.61203 20 ft 8 kts 245°
2026-04-14 14:06 34.86962 33.61161 20 ft 7 kts 231°
2026-04-14 14:06 34.86951 33.61145 20 ft 2 kts 229°
2026-04-14 14:07 34.86946 33.61138 22 ft 0 kts 230°